Location: Brad
(46.1333°N, 22.7833°E)
Time: 20:59:51
(UTC+00:00)

Cosmos 1461 - Pass Details

Date: 03 February 2023
Orbit: 492 x 644 km, 65.0° (Epoch: 22 March)

Event Time Altitude Azimuth Distance (km) Brightness Sun altitude
Rises 16:00:29 0° 179° (S) 2,720 6.6 -4.7°
Reaches altitude 10° 16:02:59 10° 164° (SSE) 1,861 5.6 -5.2°
Maximum altitude 16:06:17 23° 112° (ESE) 1,272 4.3 -5.7°
Drops below altitude 10° 16:09:43 10° 61° (ENE) 1,950 5.0 -6.3°
Enters shadow 16:10:33 - 55° (NE) 2,231 5.3 -6.4°
